FW5965 Weather Reports


Display with metric or nautical units.
time (UTC)temp
F
wind
direction
speed
MPH
gust
MPH
rain 1hr
in
rain 24hr
in
rain mn
in
humidity
%
barometer
mb
20260505021501 44 144 0.0 0.0 0.00 0.01 0.01 80 1013.2
20260505020004 44 144 0.0 0.0 0.00 0.01 0.01 80 1012.9
20260505014458 44 144 0.0 0.0 0.00 0.01 0.01 78 1013.0
20260505011459 45 144 0.0 0.0 0.00 0.01 0.01 77 1013.0
20260505003001 45 144 0.0 0.0 0.01 0.01 0.01 79 1013.1
20260505000005 47 180 0.0 0.0 0.00 0.00 0.00 68 1013.7
20260504234500 47 249 0.0 0.0 0.00 0.00 0.00 67 1013.4
20260504232959 47 286 0.0 0.0 0.00 0.00 0.00 67 1013.0
20260504231502 49 9 0.0 0.0 0.00 0.00 0.00 61 1012.6
20260504224502 51 58 0.0 0.0 0.00 0.00 0.00 51 1012.2
20260504223002 52 46 0.0 0.0 0.00 0.00 0.00 49 1011.8
20260504221500 53 96 0.0 4.0 0.00 0.00 0.00 44 1011.8
20260504220004 55 59 0.0 0.0 0.00 0.00 0.00 42 1011.6
20260504213000 58 128 0.0 0.0 0.00 0.00 0.00 36 1011.3
20260504211500 59 128 0.0 0.0 0.00 0.00 0.00 34 1011.4
20260504210004 59 51 0.0 0.0 0.00 0.00 0.00 33 1011.5
20260504204500 58 21 0.0 0.0 0.00 0.00 0.00 41 1011.7
20260504202959 58 175 0.0 1.0 0.00 0.00 0.00 38 1012.2
20260504201501 57 9 0.0 1.0 0.00 0.00 0.00 45 1012.5
20260504195958 55 319 0.0 6.0 0.00 0.00 0.00 47 1012.8
20260504194459 53 9 1.0 13.0 0.00 0.00 0.00 55 1013.4
20260504191458 56 146 0.0 0.0 0.00 0.00 0.00 40 1012.7
20260504190004 57 141 0.0 1.0 0.00 0.00 0.00 39 1012.7
20260504184500 52 130 0.0 0.0 0.00 0.00 0.00 48 1013.3
20260504181458 56 257 0.0 5.0 0.00 0.00 0.00 33 1012.6
20260504180002 57 348 0.0 3.0 0.00 0.00 0.00 35 1012.5
20260504174459 58 9 0.0 0.0 0.00 0.00 0.00 35 1012.5
20260504172958 57 17 0.0 1.0 0.00 0.00 0.00 33 1012.8
20260504171459 58 343 0.0 1.0 0.00 0.00 0.00 33 1013.0
20260504081459 39 360 0.0 0.0 0.00 0.00 0.00 49 1014.8
20260504050005 46 18 0.0 0.0 0.00 0.00 0.00 46 1016.0
20260504043003 47 18 0.0 0.0 0.00 0.00 0.00 43 1016.3
20260504041500 48 18 0.0 0.0 0.00 0.00 0.00 41 1016.5
20260504033000 52 229 0.0 3.0 0.00 0.00 0.00 33 1016.4
20260504031503 52 207 0.0 0.0 0.00 0.00 0.00 35 1016.5
20260504024502 53 232 0.0 0.0 0.00 0.00 0.00 34 1016.4
20260504023001 54 232 0.0 0.0 0.00 0.00 0.00 33 1016.4